Wind_Speed
30 30 28 26 24 21 21 22 19 15 17 21 23 25 27 30 33 35 34 31 29 29 31 34 36 34 34 34 33 32 32 33 32 30 28 28 29 30 31 31 30 31
31 29 27 25 24 23 22 19 15 16 21 25 27 30 31 33 35 35 33 30 27 30 33 34 35 34 33 33 31 30 31 32 32 30 29 29 29 30 32 32 31 31
30 29 27 25 25 24 21 16 16 20 26 29 31 33 34 34 33 32 30 27 27 30 32 33 35 34 31 31 30 29 29 30 30 29 29 29 28 29 31 30 30 30
28 27 26 25 24 22 18 17 22 25 29 31 32 33 34 33 31 30 29 27 28 31 32 33 35 33 31 31 30 28 28 29 29 27 28 30 29 29 31 31 31 32
26 25 24 24 22 19 18 21 25 28 31 32 33 34 34 32 30 30 30 29 29 32 33 33 33 32 31 31 29 28 28 27 27 27 29 33 32 31 32 32 32 35
26 23 24 23 19 18 20 23 25 28 32 33 34 33 31 30 31 31 31 30 31 33 33 33 33 32 29 28 27 27 27 27 28 28 30 34 34 33 33 31 32 35
24 23 24 23 18 18 22 24 27 31 32 32 32 31 31 31 31 30 30 31 33 33 32 30 29 28 27 26 27 28 28 28 29 29 30 32 33 34 33 31 31 33
23 21 23 23 19 20 24 27 29 32 31 31 31 31 31 31 30 30 31 31 31 31 30 29 27 27 27 27 28 30 30 29 28 28 29 31 33 35 35 33 33 35
22 22 23 23 21 22 26 29 31 31 30 31 32 32 32 31 30 30 31 30 30 30 30 29 28 28 29 29 29 31 31 30 30 30 31 32 34 36 37 35 35 36
23 24 23 22 22 24 27 30 31 31 31 31 32 32 31 31 31 30 30 30 30 31 31 29 29 29 30 30 29 30 31 31 31 32 33 34 36 37 37 36 34 34
24 24 23 23 24 26 28 30 31 31 31 32 32 32 31 32 31 30 29 29 29 30 30 30 29 29 29 30 29 29 30 31 33 35 37 39 41 42 41 40 38 38
24 24 24 24 25 28 29 30 31 32 32 32 31 32 32 33 32 31 30 30 30 31 31 31 31 30 31 32 33 33 34 36 39 42 43 44 45 46 45 44 43 43
23 23 24 25 27 29 30 31 32 32 31 31 32 33 34 35 35 34 33 31 31 33 33 34 35 36 37 37 38 38 39 41 43 43 45 45 45 45 45 45 45 45
23 24 25 28 29 30 30 31 32 31 30 31 33 34 35 36 37 37 35 34 35 36 37 36 37 39 39 39 41 41 42 42 43 44 46 48 49 48 46 44 43 42
24 25 28 30 30 31 30 30 30 31 32 33 35 36 37 38 38 37 38 39 39 39 39 39 39 40 40 40 40 41 40 41 42 43 43 44 43 42 38 36 36 36
26 28 30 31 31 31 30 30 31 33 34 37 38 39 39 39 39 39 40 40 41 41 41 40 41 42 41 40 39 39 39 39 38 38 36 35 35 35 35 35 36 38
29 31 32 33 33 33 32 33 35 36 37 38 39 40 40 40 40 40 40 40 40 41 42 42 43 43 41 40 40 40 40 40 39 39 38 38 39 39 40 41 41 43
32 34 35 35 36 36 36 37 38 38 39 40 41 41 40 40 40 40 40 40 40 41 43 44 44 43 41 41 42 42 43 45 46 46 43 42 43 42 42 42 42 43
34 35 36 37 38 38 39 40 39 40 40 41 42 41 40 41 41 40 41 41 40 41 43 45 46 45 43 43 45 46 46 47 48 48 45 43 43 42 41 41 40 40
34 35 36 39 40 40 40 40 40 41 41 40 41 41 41 41 42 42 42 42 42 42 44 45 47 47 44 44 46 48 49 48 48 47 45 43 43 42 41 41 40 39
35 36 38 39 40 40 40 40 40 40 40 40 41 41 41 41 41 42 43 44 44 43 44 46 48 47 45 46 48 48 49 49 48 46 45 44 45 43 42 42 41 40
36 37 39 40 40 40 40 40 40 39 40 40 40 41 40 40 41 42 43 44 45 44 43 46 49 48 46 48 49 49 48 49 47 45 44 44 44 44 43 42 41 41
37 37 38 39 40 39 40 40 39 40 40 40 39 40 41 41 42 43 43 43 44 45 44 44 48 49 47 47 50 49 49 49 47 44 42 42 43 43 43 42 41 41
38 37 37 38 39 39 39 39 39 39 40 39 37 39 41 42 42 43 43 43 43 44 43 43 45 48 47 46 48 49 49 50 48 44 42 41 41 41 41 41 41 40
38 37 37 38 39 39 39 39 39 39 39 39 38 38 39 41 41 41 42 43 43 43 43 42 42 46 48 46 45 48 51 52 49 43 39 38 38 37 36 36 37 36
37 37 38 38 38 39 39 39 38 38 39 40 40 39 39 41 41 40 41 42 43 43 43 42 41 45 48 46 45 48 51 52 48 41 36 34 33 32 30 29 31 32
Wind_Direction
341 340 338 335 333 329 327 328 328 332 336 338 338 336 333 332 331 331 330 327 325 321 320 321 322 323 322 321 322 318 314 312 309 306 302 297 292 290 287 284 279 275
338 337 335 332 329 328 329 325 321 327 333 334 334 332 331 330 329 328 326 323 320 317 317 318 319 320 320 319 318 314 310 308 307 306 303 298 296 293 289 286 281 276
336 334 331 329 327 328 327 319 317 325 330 332 333 331 329 328 326 324 322 319 315 315 315 316 318 318 317 316 314 308 305 304 302 303 302 298 297 295 291 289 285 279
333 331 328 327 327 326 321 320 324 327 330 331 331 329 326 325 323 321 320 317 314 315 315 316 317 317 315 314 311 306 302 301 299 299 298 295 294 292 289 289 288 285
332 330 327 327 327 321 319 326 329 329 331 329 326 325 324 323 322 320 320 318 316 316 316 315 315 315 313 311 309 304 301 299 298 297 295 293 292 290 289 289 288 285
331 329 329 330 324 316 321 328 328 328 327 325 323 323 323 322 320 319 318 317 316 315 314 314 313 312 311 308 304 300 298 297 296 295 293 291 290 289 288 288 287 285
327 324 329 331 320 313 323 327 325 325 324 322 322 322 322 321 319 318 317 315 316 315 312 310 308 307 306 304 302 299 297 295 293 292 290 288 289 289 287 287 286 285
323 321 326 328 318 313 321 323 322 323 323 322 321 321 321 320 318 317 316 314 314 312 309 307 303 302 303 302 301 299 296 294 292 291 288 287 288 288 287 287 285 283
322 322 324 325 319 315 319 321 322 323 323 322 321 320 320 319 317 316 315 314 311 308 307 305 301 300 302 302 300 298 296 293 291 290 288 288 288 288 288 289 287 283
321 322 322 322 320 318 319 321 322 323 322 321 320 319 318 317 316 314 314 312 308 306 306 303 299 298 299 299 297 295 294 292 291 290 287 287 286 286 287 287 285 283
322 322 322 321 320 320 320 321 322 322 321 320 319 317 316 315 314 313 312 308 304 303 302 299 297 295 295 295 293 291 291 288 288 288 286 285 285 284 284 283 281 279
321 321 320 320 319 320 320 320 320 320 319 318 317 316 314 313 313 312 309 305 302 301 299 296 296 294 293 293 291 289 288 286 285 286 285 284 283 282 282 280 278 277
318 318 319 319 319 319 319 319 319 318 317 316 315 314 312 312 312 310 308 305 302 300 298 297 297 296 295 294 292 290 288 286 285 284 283 283 282 281 281 279 277 275
318 318 318 319 319 319 318 318 318 317 316 315 314 313 312 311 311 309 307 305 303 300 299 298 298 297 296 294 293 291 288 286 285 283 282 281 281 281 280 278 275 272
318 319 319 319 319 319 318 318 318 317 315 314 313 312 312 311 310 309 307 305 304 302 301 301 299 297 296 294 291 290 287 285 284 282 280 278 278 278 277 275 273 271
318 319 319 319 319 319 318 317 317 316 314 313 313 312 312 312 311 309 308 306 305 304 303 302 300 298 296 293 290 288 286 285 284 283 281 279 278 279 279 277 275 274
319 320 320 319 319 318 317 317 316 315 314 313 313 313 313 313 311 309 308 306 305 304 303 301 300 299 296 293 291 289 287 286 285 285 283 281 280 279 278 277 276 275
321 321 320 319 319 319 318 318 317 316 315 315 314 314 314 313 311 309 308 307 305 304 303 301 300 299 296 294 292 290 290 291 289 286 284 282 281 280 278 276 276 274
322 321 320 320 320 319 319 319 318 317 317 316 315 314 314 312 310 309 308 307 306 305 303 302 301 301 298 295 293 294 296 296 293 289 286 283 282 280 278 276 274 273
323 322 321 320 320 320 319 319 318 317 316 316 315 314 313 312 311 310 309 308 307 306 304 303 303 303 299 296 296 298 299 298 294 291 288 285 283 281 279 277 274 272
323 322 321 320 320 320 319 318 318 317 316 316 315 314 312 312 311 310 310 309 308 307 305 303 304 304 301 299 299 300 300 299 296 293 290 286 284 282 279 277 274 271
324 322 321 320 320 320 319 318 317 316 316 316 315 313 312 312 311 310 310 309 309 308 306 303 305 306 304 303 303 301 300 300 297 293 290 286 284 282 280 277 274 270
323 322 320 319 319 319 318 317 317 316 316 316 315 313 313 312 311 311 310 309 308 308 306 304 306 309 306 304 305 304 301 299 296 292 288 284 281 280 278 274 272 269
322 321 320 319 318 317 317 317 316 315 315 316 314 312 311 311 312 311 310 309 308 307 307 304 304 308 307 304 304 304 302 300 297 292 288 284 280 277 274 272 270 268
322 321 320 319 317 317 317 317 316 315 315 315 314 312 311 311 312 311 310 310 309 308 308 306 304 307 309 305 303 304 304 302 299 293 287 282 278 274 270 268 266 265
322 321 320 319 318 318 318 317 316 316 317 317 316 315 314 313 313 312 310 311 312 312 311 310 308 309 310 308 306 307 307 305 302 297 290 284 278 272 265 262 262 262
Height
843 841 839 837 835 834 832 830 828 826 824 822 820 818 816 814 811 809 807 805 803 801 799 797 795 793 791 789 787 785 783 781 779 778 777 775 774 772 770 768 768 766
843 841 839 837 834 833 831 829 827 825 823 821 819 817 815 812 810 808 806 803 801 799 797 794 792 790 788 786 784 782 780 778 776 775 773 771 769 768 766 765 763 762
842 839 838 835 833 831 830 828 826 824 822 820 818 816 813 811 809 807 804 802 799 797 794 792 790 788 786 784 782 779 777 775 772 771 769 767 766 764 762 761 759 757
841 839 837 834 832 831 829 827 824 823 821 818 816 814 811 809 806 804 802 800 797 794 792 790 787 785 783 780 779 776 774 772 770 768 766 763 762 761 758 757 755 753
840 838 836 833 831 829 827 825 823 821 819 816 814 812 809 806 804 801 798 796 794 791 788 786 784 782 780 777 775 773 771 769 767 766 763 759 758 757 755 754 752 749
839 836 834 832 830 828 826 824 822 819 817 814 812 809 806 804 801 798 795 793 790 787 785 782 780 778 776 774 772 770 768 765 763 762 760 755 753 752 751 750 748 745
837 835 833 831 829 827 824 822 820 818 815 812 809 807 804 801 798 795 793 790 787 784 781 779 777 774 773 771 769 766 764 762 760 758 755 752 750 748 747 747 745 741
836 834 831 829 827 825 823 821 818 815 813 810 807 804 801 799 795 792 790 787 783 781 778 775 773 771 769 767 765 762 760 757 755 754 751 748 746 743 742 742 741 737
834 832 830 828 826 823 821 818 816 813 810 807 804 801 798 796 793 790 786 784 780 777 775 772 770 767 765 764 761 758 756 753 751 750 747 744 742 739 737 737 736 732
833 831 828 826 824 821 818 816 813 810 807 804 801 798 795 792 790 787 784 780 777 774 771 769 767 764 762 760 758 755 752 749 747 746 743 740 738 735 733 732 731 727
831 829 826 824 822 819 816 813 810 807 804 801 798 795 792 789 787 784 781 778 775 772 769 766 764 761 759 756 754 752 749 746 743 741 738 736 732 730 728 727 726 722
830 827 825 822 820 817 814 811 809 806 802 799 796 793 789 787 784 781 778 775 772 769 766 763 760 758 756 753 750 748 745 742 738 735 732 729 726 723 722 720 719 716
828 825 823 821 818 815 812 809 806 803 800 797 794 790 787 784 781 778 775 772 768 765 762 759 756 753 751 748 745 742 739 735 732 729 725 722 719 717 715 713 711 709
826 824 821 819 816 813 810 806 803 800 797 794 790 787 784 780 777 774 770 767 764 760 757 755 752 748 745 742 738 735 732 728 724 721 717 713 710 708 707 705 703 701
824 822 819 816 813 810 807 803 800 797 793 790 787 783 780 776 773 770 766 762 759 755 752 749 746 743 739 736 732 728 725 721 717 713 710 706 702 700 699 697 696 694
823 820 817 814 811 807 804 801 797 794 790 786 783 779 776 772 769 765 762 758 753 750 746 744 740 737 733 730 726 723 719 715 711 708 705 702 699 696 694 692 691 689
821 818 815 812 809 805 802 798 794 791 787 783 779 775 772 768 765 761 757 754 750 746 741 738 734 731 728 724 720 717 714 710 707 703 700 698 694 691 688 686 684 682
819 815 812 809 806 802 798 795 791 787 783 779 775 771 768 764 761 757 753 749 746 742 737 733 728 725 723 718 713 710 707 704 701 698 694 691 687 685 681 678 676 674
817 813 809 806 803 799 795 792 788 783 779 775 771 767 764 760 756 752 748 745 742 737 732 727 722 719 716 711 706 702 699 696 694 690 687 683 680 677 674 671 669 666
814 811 807 803 800 796 792 788 785 780 776 772 768 763 759 755 751 747 743 739 736 733 727 722 716 713 709 704 700 695 691 688 686 683 679 676 672 669 667 664 661 659
812 808 804 800 797 793 789 785 782 778 773 769 765 760 756 752 748 743 739 734 731 728 723 716 711 707 703 698 693 689 684 681 679 675 671 667 664 661 659 656 653 651
810 806 802 798 794 790 786 782 778 774 770 766 762 757 753 749 745 740 736 730 726 723 719 712 705 702 698 691 686 683 678 675 671 667 663 659 655 652 650 647 645 643
808 804 799 795 791 788 784 780 776 771 767 764 759 754 749 745 741 736 732 727 722 718 714 709 701 696 692 686 680 676 672 668 664 659 655 651 646 643 641 638 636 634
805 802 798 793 789 785 781 777 773 769 765 761 757 752 746 742 738 733 727 724 719 714 710 706 698 692 687 682 676 670 665 661 657 651 646 642 637 634 631 629 627 625
803 799 796 791 787 783 779 775 771 766 762 758 754 750 744 739 735 730 723 719 715 710 706 702 695 688 682 677 672 665 659 654 649 643 638 633 628 625 622 620 619 617
801 797 793 789 784 780 776 772 768 763 759 754 750 746 741 735 731 726 720 714 709 705 701 696 691 685 677 672 667 660 652 647 642 636 630 624 620 617 614 613 612 611